Location: Unspecified
(34.4950°S, 58.5160°W)
Time: 15:06:56
(UTC+00:00)

Cosmos 1655 Rocket - Pass Details

Date: 05 July 2022
Orbit: 971 x 1005 km, 83.0° (Epoch: 11 August)

Event Time Altitude Azimuth Distance (km) Brightness Sun altitude
Rises 09:54:23 0° 182° (S) 3,742 6.8 -13.5°
Reaches altitude 10° 09:57:00 10° 178° (S) 2,782 6.2 -13.0°
Maximum altitude 10:03:18 59° 99° (E) 1,135 4.7 -11.8°
Drops below altitude 10° 10:09:27 10° 19° (NNE) 2,727 6.9 -10.6°
Sets 10:11:59 0° 15° (NNE) 3,663 7.6 -10.1°
